Location: Lake Arresoe
(56.0000°N, 12.5000°E)
Time: 08:04:30
(UTC+02:00)

Okean 3 - Pass Details

Date: 19 August 2020
Orbit: 577 x 600 km, 82.5° (Epoch: 21 September)

Event Time Altitude Azimuth Distance (km) Brightness Sun altitude
Rises 22:53:55 0° 343° (NNW) 2,862 8.4 -15.7°
Reaches altitude 10° 22:56:15 10° 335° (NNW) 1,956 7.4 -15.9°
Maximum altitude 23:00:14 38° 268° (W) 934 4.7 -16.2°
Enters shadow 23:03:41 13° 204° (SSW) 1,746 5.6 -16.4°
